Home > Weather > Yonkers > Past weeks

Flag for U.S.A. Weather for the Past 2 Weeks in Yonkers, New York, U.S.A.

Now
21 °F

Mostly cloudy.


Feels Like: 7 °F
Forecast: 5 / 20 °F
Wind: 17 mph from Northwest

Location: Teterboro Airport

Current Time: Feb 13, 2016 at 11:07:18 AM

Latest Report: Feb 13, 2016 at 9:51 AM


Visibility: 10 mi

Pressure: 30.02 "Hg

Humidity: 31%

Dew point: -5 °F

Location of YonkersLocation

Historic Weather in Yonkers — Graph

°F

Yonkers Temperature Yesterday

Maximum temperature yesterday: 28 °F (at 3:51 PM)
Minimum temperature yesterday: 15 °F (at 6:51 AM)
Average temperature yesterday: 21 °F

High & Low Weather Summary for the Past Weeks

 TemperatureHumidityPressure
High58 °F (Feb 3, 7:51 PM)94% (Feb 3, 3:58 PM)30.43 "Hg (Feb 3, 3:58 PM)
Low15 °F (Feb 12, 6:51 AM)27% (Feb 12, 2:51 PM)29.46 "Hg (Jan 29, 11:51 AM)
Average36 °F58%29.96 "Hg
* Reported Jan 29 9:51 AM — Feb 13 9:51 AM, Yonkers, Weather by CustomWeather, © 2016

Note: Actual official high and low records may vary slightly from our data, if they occured in-between our weather recording intervals... More about our weather records

Advertising

Yonkers Weather History for the Previous 24 Hours

 ConditionsComfort  
Time TempWeatherWind HumidityBarometerVisibility
9:51 AM
Sat, Feb 13
21 °FMostly cloudy.17 mph31%30.02 "Hg10 mi
8:51 AM22 °FPassing clouds.17 mph40%30.00 "Hg10 mi
7:51 AM21 °FSunny.17 mph40%29.97 "Hg10 mi
6:51 AM21 °FClear.15 mph52%29.93 "Hg10 mi
5:51 AM20 °FClear.9 mph68%29.90 "Hg10 mi
4:51 AM19 °FClear.No wind71%29.87 "Hg10 mi
3:51 AM19 °FClear.6 mph71%29.87 "Hg10 mi
2:51 AM20 °FPassing clouds.7 mph68%29.88 "Hg10 mi
1:51 AM21 °FLight snow. Overcast.9 mph65%29.89 "Hg10 mi
12:51 AM22 °FMostly cloudy.10 mph57%29.91 "Hg10 mi
11:51 PM
Fri, Feb 12
22 °FMostly cloudy.7 mph50%29.93 "Hg10 mi
10:51 PM22 °FOvercast.9 mph48%29.94 "Hg10 mi
9:51 PM23 °FPassing clouds.10 mph42%29.95 "Hg10 mi
8:51 PM23 °FOvercast.10 mph42%29.96 "Hg10 mi
7:51 PM23 °FOvercast.12 mph40%29.98 "Hg10 mi
6:51 PM24 °FLight snow. Overcast.8 mph40%30.00 "Hg9 mi
5:51 PM27 °FOvercast.9 mph34%30.01 "Hg10 mi
3:51 PM28 °FOvercast.12 mph27%30.04 "Hg10 mi
2:51 PM27 °FPassing clouds.13 mph27%30.06 "Hg10 mi
1:51 PM27 °FSunny.7 mph29%30.09 "Hg10 mi
12:51 PM27 °FSunny.6 mph29%30.13 "Hg10 mi
11:51 AM24 °FSunny.10 mph30%30.18 "Hg10 mi
Weather by CustomWeather, © 2016

See weather overviewHow to use our weather pages